Weather History for Clinton, OK

Change the Weather History Date:

Wednesday, December 19, 2012

  Actual Average (KCSM) Record (KCSM)
Temperature  
Mean Temperature 46 °F -  
Max Temperature 59 °F 47 °F 64 °F (2013)
Min Temperature 33 °F 27 °F 7 °F (1996)
Degree Days  
Heating Degree Days 19    
Moisture  
Dew Point 30 °F    
Average Humidity 62    
Maximum Humidity 81    
Minimum Humidity 28    
Precipitation  
Precipitation 0.00 in - - ()
Sea Level Pressure  
Sea Level Pressure 29.62 in    
Wind  
Wind Speed 8 mph (SW)    
Max Wind Speed 37 mph    
Max Gust Speed 53 mph    
Visibility 10 miles    
Events Rain    
Averages and records for this station are not official NWS values.
T = Trace of Precipitation, MM = Missing Value Source: NWS Daily Summary

Daily Weather History Graph

Daily Weather History Graph

Search for Another Location

Airport:

Trip Planner

Search our weather history database for the weather conditions in past years. The results will help you decide how hot, cold, wet, or windy it might be!

Date:

Astronomy

Dec. 19, 2012 Rise Set
Actual Time 7:40 AM CST 5:25 PM CST
Civil Twilight 7:12 AM CST 5:54 PM CST
Nautical Twilight 6:40 AM CST 6:26 PM CST
Astronomical Twilight 6:09 AM CST 6:57 PM CST
Moon 12:03 PM CST (12/19) No Moon Set
Length of Visible Light 10h 42m
Length of Day
9h 45m
Waxing Crescent, 45% of the Moon is Illuminated
Dec 19
Waxing Crescent
Dec 19
First Quarter
Dec 28
Full
Jan 4
Last Quarter
Jan 11
New

Hourly Weather History & Observations

Time (CST) Temp. Windchill Dew Point Humidity Pressure Visibility Wind Dir Wind Speed Gust Speed Precip Events Conditions
12:15 AM 35.6 °F - 24.8 °F 65% 29.74 in 10.0 mi Calm Calm - N/A   Clear
12:35 AM 37.4 °F 34.9 °F 24.8 °F 60% 29.75 in 10.0 mi NNW 3.5 mph - N/A   Clear
12:55 AM 37.4 °F - 24.8 °F 60% 29.75 in 10.0 mi Calm Calm - N/A   Clear
1:15 AM 37.4 °F - 24.8 °F 60% 29.73 in 10.0 mi Calm Calm - N/A   Clear
1:35 AM 37.4 °F 34.9 °F 26.6 °F 65% 29.71 in 10.0 mi ENE 3.5 mph - N/A   Clear
1:55 AM 35.6 °F - 26.6 °F 70% 29.72 in 10.0 mi Calm Calm - N/A   Clear
2:15 AM 35.6 °F 32.8 °F 26.6 °F 70% 29.72 in 10.0 mi NE 3.5 mph - N/A   Clear
2:35 AM 35.6 °F 31.7 °F 26.6 °F 70% 29.71 in 10.0 mi NE 4.6 mph - N/A   Clear
2:55 AM 35.6 °F 32.8 °F 26.6 °F 70% 29.70 in 10.0 mi ENE 3.5 mph - N/A   Clear
3:15 AM 37.4 °F 33.8 °F 28.4 °F 70% 29.68 in 10.0 mi NE 4.6 mph - N/A   Clear
3:35 AM 37.4 °F 34.9 °F 28.4 °F 70% 29.68 in 10.0 mi East 3.5 mph - N/A   Clear
3:55 AM 35.6 °F 30.7 °F 28.4 °F 75% 29.66 in 10.0 mi ENE 5.8 mph - N/A   Clear
4:15 AM 41.0 °F 37.1 °F 28.4 °F 61% 29.65 in 10.0 mi NE 5.8 mph - N/A   Clear
4:35 AM 39.2 °F 37.0 °F 30.2 °F 70% 29.65 in 10.0 mi ENE 3.5 mph - N/A   Clear
4:55 AM 37.4 °F - 30.2 °F 75% 29.64 in 10.0 mi Calm Calm - N/A   Clear
5:15 AM 35.6 °F - 28.4 °F 75% 29.63 in 10.0 mi Calm Calm - N/A   Clear
5:35 AM 35.6 °F - 28.4 °F 75% 29.63 in 10.0 mi Calm Calm - N/A   Clear
5:55 AM 35.6 °F - 26.6 °F 70% 29.62 in 10.0 mi Calm Calm - N/A   Clear
6:15 AM 35.6 °F - 28.4 °F 75% 29.62 in 10.0 mi Calm Calm - N/A   Clear
6:35 AM 35.6 °F - 28.4 °F 75% 29.62 in 10.0 mi Calm Calm - N/A   Clear
6:55 AM 37.4 °F - 28.4 °F 70% 29.61 in 10.0 mi Calm Calm - N/A   Clear
7:15 AM 37.4 °F - 28.4 °F 70% 29.61 in 10.0 mi Calm Calm - N/A   Clear
7:35 AM 35.6 °F 30.7 °F 30.2 °F 81% 29.58 in 10.0 mi SE 5.8 mph - N/A   Clear
7:55 AM 35.6 °F - 30.2 °F 81% 29.60 in 10.0 mi Calm Calm - N/A   Clear
8:15 AM 37.4 °F 34.9 °F 30.2 °F 75% 29.60 in 10.0 mi West 3.5 mph - N/A   Clear
8:35 AM 37.4 °F 32.1 °F 30.2 °F 75% 29.62 in 7.0 mi WNW 6.9 mph - N/A   Clear
8:55 AM 39.2 °F 34.2 °F 30.2 °F 70% 29.62 in 10.0 mi WNW 6.9 mph - N/A   Clear
9:15 AM 39.2 °F 34.2 °F 30.2 °F 70% 29.60 in 10.0 mi SE 6.9 mph - N/A   Clear
9:35 AM 41.0 °F 35.2 °F 30.2 °F 65% 29.60 in 10.0 mi SSE 9.2 mph - N/A   Clear
9:55 AM 42.8 °F 38.0 °F 30.2 °F 61% 29.60 in 10.0 mi SSE 8.1 mph - N/A   Clear
10:15 AM 42.8 °F 37.0 °F 30.2 °F 61% 29.58 in 10.0 mi SSE 10.4 mph - N/A   Clear
10:35 AM 42.8 °F 38.0 °F 32.0 °F 66% 29.60 in 10.0 mi South 8.1 mph - N/A   Clear
10:55 AM 42.8 °F 40.1 °F 32.0 °F 66% 29.60 in 10.0 mi SSW 4.6 mph - N/A   Clear
11:15 AM 44.6 °F 43.1 °F 32.0 °F 61% 29.60 in 10.0 mi South 3.5 mph - N/A   Clear
11:35 AM 44.6 °F 42.2 °F 32.0 °F 61% 29.58 in 10.0 mi SSE 4.6 mph - N/A   Clear
11:55 AM 46.4 °F 43.5 °F 32.0 °F 57% 29.56 in 10.0 mi SSE 5.8 mph - N/A   Clear
12:15 PM 46.4 °F 42.9 °F 32.0 °F 57% 29.55 in 10.0 mi South 6.9 mph - N/A   Clear
12:35 PM 46.4 °F 44.3 °F 32.0 °F 57% 29.55 in 10.0 mi South 4.6 mph - N/A   Clear
12:55 PM 46.4 °F 44.3 °F 32.0 °F 57% 29.51 in 10.0 mi SE 4.6 mph - N/A   Clear
1:15 PM 48.2 °F - 35.6 °F 62% 29.51 in 10.0 mi SSE 8.1 mph - N/A   Clear
1:35 PM 50.0 °F - 37.4 °F 62% 29.49 in 10.0 mi SSE 9.2 mph - N/A   Clear
1:55 PM 51.8 °F - 41.0 °F 67% 29.48 in 10.0 mi SSE 15.0 mph - N/A   Clear
2:15 PM 53.6 °F - 42.8 °F 67% 29.47 in 10.0 mi SSE 16.1 mph - N/A   Clear
2:35 PM 53.6 °F - 42.8 °F 67% 29.46 in 10.0 mi South 15.0 mph - N/A   Clear
2:55 PM 57.2 °F - 42.8 °F 59% 29.46 in 10.0 mi South 18.4 mph - N/A   Clear
3:15 PM 59.0 °F - 41.0 °F 51% 29.46 in 10.0 mi South 18.4 mph - N/A   Clear
3:35 PM 59.0 °F - 39.2 °F 48% 29.45 in 10.0 mi South 16.1 mph - N/A   Clear
3:55 PM 59.0 °F - 37.4 °F 45% 29.45 in 10.0 mi South 16.1 mph - N/A   Clear
4:15 PM 59.0 °F - 37.4 °F 45% 29.45 in 10.0 mi South 18.4 mph 23.0 mph N/A   Clear
4:35 PM 57.2 °F - 37.4 °F 48% 29.46 in 10.0 mi South 15.0 mph 23.0 mph N/A   Clear
5:15 PM 55.4 °F - 35.6 °F 47% 29.46 in 10.0 mi South 13.8 mph 19.6 mph N/A   Overcast
5:35 PM 55.4 °F - 35.6 °F 47% 29.48 in 10.0 mi SW 10.4 mph - N/A   Overcast
5:55 PM 55.4 °F - 32.0 °F 41% 29.51 in 7.0 mi West 26.5 mph 34.5 mph N/A   Overcast
6:15 PM 53.6 °F - 21.2 °F 28% 29.55 in 10.0 mi WNW 23.0 mph 35.7 mph N/A   Overcast
6:35 PM 51.8 °F - 19.4 °F 28% 29.57 in 10.0 mi WNW 20.7 mph 28.8 mph N/A   Mostly Cloudy
6:55 PM 50.0 °F - 21.2 °F 32% 29.59 in 10.0 mi WNW 21.9 mph 26.5 mph N/A   Clear
7:15 PM 48.2 °F - 26.6 °F 43% 29.60 in 10.0 mi WNW 17.3 mph 29.9 mph N/A Rain Rain
7:35 PM 46.4 °F 37.2 °F 23.0 °F 40% 29.61 in 10.0 mi WNW 29.9 mph 38.0 mph N/A   Scattered Clouds
7:55 PM 46.4 °F 36.9 °F 21.2 °F 37% 29.63 in 10.0 mi WNW 32.2 mph 42.6 mph N/A   Clear
8:15 PM 41.0 °F 29.0 °F 23.0 °F 49% 29.66 in 10.0 mi WNW 35.7 mph 44.9 mph N/A   Mostly Cloudy
8:35 PM 39.2 °F 28.7 °F 24.8 °F 56% 29.68 in 10.0 mi WNW 23.0 mph 36.8 mph N/A   Scattered Clouds
8:55 PM 37.4 °F 25.4 °F 26.6 °F 65% 29.69 in 10.0 mi WNW 27.6 mph 35.7 mph N/A   Clear
9:15 PM 37.4 °F 25.4 °F 28.4 °F 70% 29.70 in 10.0 mi WNW 27.6 mph 35.7 mph N/A   Scattered Clouds
9:35 PM 39.2 °F 26.6 °F 30.2 °F 70% 29.71 in 10.0 mi WNW 34.5 mph 46.0 mph N/A   Mostly Cloudy
9:55 PM 37.4 °F 24.8 °F 28.4 °F 70% 29.74 in 10.0 mi NW 31.1 mph 44.9 mph N/A   Overcast
10:15 PM 35.6 °F 22.5 °F 26.6 °F 70% 29.78 in 10.0 mi NW 29.9 mph 46.0 mph N/A   Overcast
10:35 PM 35.6 °F 21.7 °F 24.8 °F 65% 29.78 in 10.0 mi NW 34.5 mph 52.9 mph N/A   Overcast
10:55 PM 33.8 °F 19.4 °F 26.6 °F 75% 29.81 in 10.0 mi NW 33.4 mph 42.6 mph N/A   Mostly Cloudy
11:15 PM 33.8 °F 18.8 °F 24.8 °F 70% 29.83 in 10.0 mi NW 36.8 mph 46.0 mph N/A   Mostly Cloudy
11:35 PM 33.8 °F 19.6 °F 23.0 °F 65% 29.85 in 10.0 mi NW 32.2 mph 50.6 mph N/A   Mostly Cloudy
11:55 PM 33.8 °F 19.2 °F 23.0 °F 65% 29.88 in 10.0 mi NW 34.5 mph 44.9 mph N/A   Overcast